| time (UTC) | temp C | wind direction | speed KPH | gust KPH | rain 1hr cm | rain 24hr cm | rain mn cm | humidity % | barometer mb |
| 20260509224231 | 19 | 204 | 0.0 | 6.4 | 0.00 | 0.51 | 0.43 | 60 | 1006.7 |
| 20260509223732 | 19 | 202 | 0.0 | 4.8 | 0.00 | 0.51 | 0.43 | 58 | 1006.5 |
| 20260509223233 | 19 | 197 | 0.0 | 1.6 | 0.00 | 0.51 | 0.43 | 60 | 1006.6 |
| 20260509222731 | 19 | 135 | 0.0 | 3.2 | 0.00 | 0.51 | 0.43 | 61 | 1006.6 |
| 20260509222233 | 19 | 161 | 0.0 | 8.0 | 0.00 | 0.51 | 0.43 | 60 | 1006.7 |
| 20260509221731 | 19 | 159 | 0.0 | 9.7 | 0.00 | 0.51 | 0.43 | 60 | 1006.9 |
| 20260509221232 | 19 | 293 | 1.6 | 9.7 | 0.00 | 0.51 | 0.43 | 59 | 1006.9 |
| 20260509220731 | 19 | 207 | 0.0 | 11.3 | 0.00 | 0.51 | 0.43 | 60 | 1007.1 |
| 20260509220231 | 19 | 264 | 0.0 | 11.3 | 0.00 | 0.51 | 0.43 | 60 | 1007.0 |
| 20260509215731 | 18 | 281 | 0.0 | 9.7 | 0.00 | 0.51 | 0.43 | 61 | 1007.0 |
| 20260509215231 | 18 | 254 | 1.6 | 9.7 | 0.00 | 0.51 | 0.43 | 63 | 1007.0 |
| 20260509214732 | 18 | 196 | 0.0 | 4.8 | 0.00 | 0.51 | 0.43 | 62 | 1006.9 |
| 20260509214231 | 18 | 158 | 0.0 | 4.8 | 0.00 | 0.51 | 0.43 | 63 | 1007.0 |
| 20260509213732 | 18 | 252 | 0.0 | 6.4 | 0.00 | 0.51 | 0.43 | 62 | 1007.1 |
| 20260509213231 | 18 | 241 | 0.0 | 6.4 | 0.00 | 0.51 | 0.43 | 64 | 1007.1 |
| 20260509212733 | 18 | 275 | 0.0 | 4.8 | 0.00 | 0.51 | 0.43 | 63 | 1007.1 |
| 20260509212231 | 18 | 268 | 0.0 | 6.4 | 0.00 | 0.51 | 0.43 | 64 | 1007.2 |
| 20260509211233 | 18 | 193 | 0.0 | 3.2 | 0.00 | 0.51 | 0.43 | 68 | 1007.1 |
| 20260509210732 | 18 | 227 | 0.0 | 3.2 | 0.00 | 0.51 | 0.43 | 66 | 1007.2 |
| 20260509205732 | 18 | 258 | 0.0 | 3.2 | 0.00 | 0.51 | 0.43 | 66 | 1007.5 |
| 20260509205231 | 18 | 76 | 0.0 | 4.8 | 0.00 | 0.51 | 0.43 | 66 | 1007.5 |
| 20260509204233 | 18 | 296 | 1.6 | 16.1 | 0.00 | 0.51 | 0.43 | 63 | 1007.5 |
| 20260509203732 | 18 | 272 | 0.0 | 16.1 | 0.00 | 0.51 | 0.43 | 65 | 1007.5 |
| 20260509203232 | 18 | 248 | 3.2 | 17.7 | 0.00 | 0.51 | 0.43 | 65 | 1007.6 |
| 20260509202731 | 18 | 305 | 3.2 | 17.7 | 0.00 | 0.51 | 0.43 | 64 | 1007.7 |
| 20260509201731 | 18 | 286 | 0.0 | 8.0 | 0.00 | 0.51 | 0.43 | 67 | 1007.7 |
| 20260509201234 | 18 | 300 | 1.6 | 4.8 | 0.00 | 0.51 | 0.43 | 67 | 1007.8 |
| 20260509200731 | 18 | 142 | 0.0 | 6.4 | 0.00 | 0.51 | 0.43 | 68 | 1007.8 |
| 20260509195231 | 18 | 231 | 0.0 | 4.8 | 0.00 | 0.51 | 0.43 | 70 | 1007.9 |
| 20260509194231 | 18 | 159 | 1.6 | 6.4 | 0.00 | 0.51 | 0.43 | 71 | 1008.2 |
| 20260509193732 | 17 | 161 | 0.0 | 6.4 | 0.00 | 0.51 | 0.43 | 71 | 1008.3 |
| 20260509193231 | 17 | 207 | 1.6 | 6.4 | 0.00 | 0.51 | 0.43 | 69 | 1008.3 |
| 20260509192732 | 18 | 173 | 0.0 | 8.0 | 0.00 | 0.51 | 0.43 | 70 | 1008.4 |
| 20260509192230 | 18 | 200 | 0.0 | 8.0 | 0.00 | 0.51 | 0.43 | 70 | 1008.5 |
| 20260509191731 | 17 | 230 | 0.0 | 4.8 | 0.00 | 0.51 | 0.43 | 74 | 1008.5 |
| 20260509191231 | 17 | 117 | 0.0 | 8.0 | 0.00 | 0.51 | 0.43 | 72 | 1008.5 |
| 20260509190730 | 17 | 293 | 1.6 | 8.0 | 0.00 | 0.51 | 0.43 | 74 | 1008.5 |
| 20260509190229 | 16 | 223 | 0.0 | 6.4 | 0.00 | 0.51 | 0.43 | 76 | 1008.7 |
| 20260509185229 | 16 | 300 | 1.6 | 6.4 | 0.00 | 0.51 | 0.43 | 77 | 1008.8 |
| 20260509184729 | 17 | 265 | 0.0 | 3.2 | 0.00 | 0.51 | 0.43 | 74 | 1008.8 |
| 20260509184230 | 17 | 147 | 0.0 | 4.8 | 0.00 | 0.51 | 0.43 | 75 | 1008.8 |
| 20260509183731 | 17 | 157 | 0.0 | 4.8 | 0.00 | 0.51 | 0.43 | 77 | 1008.7 |
| 20260509182731 | 16 | 103 | 0.0 | 4.8 | 0.00 | 0.51 | 0.43 | 82 | 1008.9 |
| 20260509181731 | 15 | 259 | 0.0 | 4.8 | 0.00 | 0.51 | 0.43 | 82 | 1009.0 |
| 20260509181233 | 15 | 272 | 0.0 | 4.8 | 0.00 | 0.51 | 0.43 | 81 | 1009.2 |
| 20260509180732 | 15 | 182 | 0.0 | 1.6 | 0.00 | 0.51 | 0.43 | 83 | 1009.1 |
| 20260509180231 | 15 | 261 | 0.0 | 9.7 | 0.00 | 0.51 | 0.43 | 82 | 1009.1 |
| 20260509175732 | 15 | 169 | 0.0 | 9.7 | 0.00 | 0.51 | 0.43 | 81 | 1008.9 |
| 20260509175231 | 15 | 224 | 1.6 | 4.8 | 0.00 | 0.51 | 0.43 | 82 | 1009.1 |
| 20260509174731 | 15 | 158 | 0.0 | 4.8 | 0.00 | 0.51 | 0.43 | 81 | 1009.1 |
| 20260509174231 | 15 | 157 | 0.0 | 4.8 | 0.00 | 0.51 | 0.43 | 81 | 1009.1 |
| 20260509173731 | 15 | 159 | 0.0 | 6.4 | 0.00 | 0.51 | 0.43 | 82 | 1009.0 |
| 20260509173230 | 15 | 255 | 0.0 | 6.4 | 0.00 | 0.51 | 0.43 | 81 | 1008.9 |
| 20260509172731 | 15 | 274 | 1.6 | 3.2 | 0.00 | 0.51 | 0.43 | 83 | 1008.9 |
| 20260509172230 | 15 | 206 | 0.0 | 4.8 | 0.00 | 0.51 | 0.43 | 84 | 1008.8 |
| 20260509171732 | 15 | 233 | 1.6 | 6.4 | 0.00 | 0.51 | 0.43 | 85 | 1008.8 |
| 20260509171230 | 15 | 272 | 0.0 | 6.4 | 0.00 | 0.51 | 0.43 | 86 | 1008.8 |
| 20260509170732 | 15 | 266 | 1.6 | 6.4 | 0.00 | 0.51 | 0.43 | 84 | 1008.8 |
| 20260509170231 | 15 | 223 | 1.6 | 6.4 | 0.00 | 0.51 | 0.43 | 85 | 1008.8 |
| 20260509165732 | 15 | 221 | 0.0 | 6.4 | 0.00 | 0.51 | 0.43 | 86 | 1008.8 |
| 20260509164731 | 15 | 190 | 1.6 | 6.4 | 0.00 | 0.51 | 0.43 | 85 | 1008.7 |
| 20260509164231 | 15 | 166 | 0.0 | 6.4 | 0.00 | 0.51 | 0.43 | 87 | 1008.6 |
| 20260509162731 | 15 | 140 | 0.0 | 3.2 | 0.00 | 0.51 | 0.43 | 90 | 1008.8 |
| 20260509162231 | 14 | 206 | 0.0 | 1.6 | 0.03 | 0.51 | 0.43 | 92 | 1008.8 |
| 20260509161731 | 13 | 195 | 0.0 | 3.2 | 0.03 | 0.51 | 0.43 | 92 | 1008.9 |
| 20260509161232 | 13 | 195 | 0.0 | 3.2 | 0.03 | 0.51 | 0.43 | 92 | 1008.7 |
| 20260509160731 | 12 | 96 | 0.0 | 3.2 | 0.03 | 0.51 | 0.43 | 92 | 1008.7 |
| 20260509160232 | 12 | 158 | 0.0 | 1.6 | 0.03 | 0.51 | 0.43 | 92 | 1008.8 |
| 20260509155731 | 12 | 321 | 0.0 | 0.0 | 0.03 | 0.48 | 0.43 | 92 | 1008.8 |
| 20260509155230 | 11 | 321 | 0.0 | 3.2 | 0.03 | 0.48 | 0.43 | 92 | 1008.8 |
| 20260509154730 | 11 | 3 | 0.0 | 8.0 | 0.03 | 0.48 | 0.43 | 92 | 1008.9 |
| 20260509154230 | 11 | 228 | 3.2 | 8.0 | 0.05 | 0.48 | 0.43 | 92 | 1008.9 |
| 20260509153230 | 11 | 290 | 0.0 | 3.2 | 0.05 | 0.48 | 0.43 | 92 | 1008.8 |
| 20260509152730 | 11 | 281 | 0.0 | 4.8 | 0.05 | 0.48 | 0.43 | 92 | 1008.6 |
| 20260509152231 | 11 | 37 | 0.0 | 4.8 | 0.03 | 0.48 | 0.41 | 92 | 1008.6 |
| 20260509151731 | 11 | 216 | 0.0 | 4.8 | 0.03 | 0.48 | 0.41 | 92 | 1008.5 |
| 20260509151231 | 11 | 157 | 0.0 | 4.8 | 0.03 | 0.48 | 0.41 | 92 | 1008.6 |
| 20260509150732 | 11 | 138 | 0.0 | 1.6 | 0.03 | 0.48 | 0.41 | 92 | 1008.8 |
| 20260509150230 | 11 | 138 | 0.0 | 1.6 | 0.03 | 0.48 | 0.41 | 92 | 1008.9 |
| 20260509145231 | 11 | 169 | 0.0 | 3.2 | 0.03 | 0.46 | 0.41 | 92 | 1008.8 |
| 20260509144732 | 11 | 158 | 0.0 | 3.2 | 0.03 | 0.46 | 0.41 | 92 | 1008.8 |
| 20260509144231 | 11 | 114 | 0.0 | 3.2 | 0.03 | 0.46 | 0.38 | 92 | 1008.7 |
| 20260509143731 | 11 | 104 | 0.0 | 3.2 | 0.03 | 0.46 | 0.38 | 92 | 1008.6 |
| 20260509143231 | 11 | 213 | 0.0 | 3.2 | 0.03 | 0.46 | 0.38 | 92 | 1008.7 |
| 20260509142730 | 11 | 199 | 0.0 | 8.0 | 0.03 | 0.46 | 0.38 | 92 | 1008.8 |
| 20260509142231 | 11 | 138 | 1.6 | 8.0 | 0.03 | 0.46 | 0.38 | 92 | 1008.8 |
| 20260509141730 | 11 | 212 | 0.0 | 1.6 | 0.05 | 0.46 | 0.38 | 92 | 1008.9 |
| 20260509141231 | 11 | 128 | 0.0 | 1.6 | 0.08 | 0.46 | 0.38 | 92 | 1008.8 |
| 20260509140733 | 11 | 240 | 0.0 | 1.6 | 0.08 | 0.46 | 0.38 | 92 | 1008.8 |
| 20260509140231 | 11 | 155 | 0.0 | 3.2 | 0.10 | 0.46 | 0.38 | 92 | 1008.8 |
| 20260509135730 | 11 | 212 | 0.0 | 3.2 | 0.13 | 0.36 | 0.38 | 92 | 1008.9 |
| 20260509135232 | 11 | 120 | 0.0 | 1.6 | 0.15 | 0.36 | 0.38 | 92 | 1008.9 |
| 20260509134730 | 11 | 190 | 0.0 | 3.2 | 0.15 | 0.36 | 0.38 | 92 | 1009.0 |
| 20260509134232 | 11 | 158 | 0.0 | 3.2 | 0.13 | 0.36 | 0.36 | 92 | 1009.0 |
| 20260509133731 | 11 | 83 | 0.0 | 1.6 | 0.15 | 0.36 | 0.36 | 92 | 1009.0 |
| 20260509133231 | 11 | 247 | 0.0 | 1.6 | 0.15 | 0.36 | 0.36 | 92 | 1009.1 |
| 20260509132731 | 11 | 86 | 0.0 | 1.6 | 0.15 | 0.36 | 0.36 | 92 | 1009.1 |
| 20260509132231 | 11 | 161 | 0.0 | 6.4 | 0.18 | 0.36 | 0.36 | 92 | 1009.1 |
| 20260509131731 | 10 | 24 | 1.6 | 6.4 | 0.15 | 0.36 | 0.33 | 92 | 1009.0 |
| 20260509131231 | 10 | 135 | 0.0 | 1.6 | 0.15 | 0.36 | 0.30 | 92 | 1009.0 |
| 20260509130231 | 10 | 145 | 0.0 | 1.6 | 0.15 | 0.36 | 0.28 | 92 | 1009.1 |
| 20260509125731 | 10 | 157 | 0.0 | 1.6 | 0.13 | 0.20 | 0.25 | 92 | 1009.2 |
| 20260509124732 | 10 | 102 | 0.0 | 0.0 | 0.10 | 0.20 | 0.23 | 92 | 1009.3 |
| 20260509124230 | 10 | 147 | 0.0 | 0.0 | 0.10 | 0.20 | 0.20 | 92 | 1009.3 |
| 20260509123731 | 10 | 147 | 0.0 | 0.0 | 0.10 | 0.20 | 0.20 | 92 | 1009.2 |
| 20260509123231 | 10 | 227 | 0.0 | 0.0 | 0.10 | 0.20 | 0.20 | 92 | 1009.3 |
| 20260509122232 | 10 | 131 | 0.0 | 1.6 | 0.10 | 0.20 | 0.18 | 92 | 1009.4 |
| 20260509121230 | 10 | 125 | 0.0 | 1.6 | 0.10 | 0.20 | 0.15 | 92 | 1009.4 |
| 20260509120230 | 10 | 140 | 0.0 | 0.0 | 0.08 | 0.20 | 0.13 | 92 | 1009.3 |
| 20260509115730 | 10 | 127 | 0.0 | 0.0 | 0.08 | 0.13 | 0.13 | 92 | 1009.3 |
| 20260509114730 | 10 | 154 | 0.0 | 3.2 | 0.08 | 0.13 | 0.13 | 92 | 1009.3 |
| 20260509114231 | 10 | 159 | 0.0 | 1.6 | 0.08 | 0.13 | 0.13 | 92 | 1009.2 |
| 20260509113730 | 10 | 89 | 0.0 | 1.6 | 0.05 | 0.13 | 0.10 | 92 | 1009.2 |
| 20260509113232 | 10 | 62 | 0.0 | 3.2 | 0.05 | 0.13 | 0.10 | 92 | 1009.2 |
| 20260509112730 | 10 | 152 | 0.0 | 3.2 | 0.05 | 0.13 | 0.08 | 92 | 1009.2 |
| 20260509112232 | 10 | 154 | 0.0 | 1.6 | 0.03 | 0.13 | 0.08 | 92 | 1009.2 |
| 20260509111731 | 10 | 62 | 0.0 | 1.6 | 0.03 | 0.13 | 0.05 | 92 | 1009.1 |
| 20260509110730 | 10 | 154 | 0.0 | 0.0 | 0.03 | 0.13 | 0.05 | 92 | 1009.0 |
| 20260509110231 | 10 | 116 | 0.0 | 0.0 | 0.03 | 0.13 | 0.05 | 92 | 1009.0 |
| 20260509105731 | 10 | 117 | 0.0 | 0.0 | 0.03 | 0.10 | 0.05 | 92 | 1008.9 |
| 20260509105230 | 10 | 148 | 0.0 | 1.6 | 0.03 | 0.10 | 0.05 | 92 | 1008.8 |
| 20260509104731 | 10 | 159 | 0.0 | 1.6 | 0.03 | 0.10 | 0.05 | 92 | 1008.9 |
| 20260509103731 | 10 | 154 | 0.0 | 0.0 | 0.03 | 0.10 | 0.05 | 92 | 1008.8 |
| 20260509102732 | 10 | 92 | 0.0 | 4.8 | 0.05 | 0.10 | 0.05 | 92 | 1008.9 |
| 20260509102230 | 10 | 94 | 0.0 | 0.0 | 0.05 | 0.10 | 0.05 | 92 | 1009.0 |
| 20260509101731 | 10 | 116 | 0.0 | 1.6 | 0.03 | 0.10 | 0.03 | 92 | 1008.8 |
| 20260509101230 | 10 | 110 | 0.0 | 0.0 | 0.03 | 0.10 | 0.03 | 92 | 1008.8 |
| 20260509100729 | 10 | 125 | 0.0 | 0.0 | 0.03 | 0.10 | 0.03 | 92 | 1008.9 |
| 20260509100229 | 10 | 161 | 0.0 | 0.0 | 0.03 | 0.10 | 0.03 | 92 | 1008.9 |
| 20260509095729 | 10 | 134 | 0.0 | 0.0 | 0.03 | 0.08 | 0.03 | 92 | 1008.9 |
| 20260509095228 | 10 | 61 | 0.0 | 0.0 | 0.03 | 0.08 | 0.03 | 92 | 1009.0 |
| 20260509094728 | 10 | 61 | 0.0 | 0.0 | 0.03 | 0.08 | 0.03 | 92 | 1008.9 |
| 20260509093728 | 10 | 62 | 0.0 | 0.0 | 0.03 | 0.08 | 0.03 | 92 | 1009.1 |
| 20260509093229 | 10 | 62 | 0.0 | 0.0 | 0.00 | 0.08 | 0.00 | 92 | 1009.1 |
| 20260509092729 | 10 | 62 | 0.0 | 0.0 | 0.00 | 0.08 | 0.00 | 91 | 1009.2 |
| 20260509092229 | 9 | 62 | 0.0 | 0.0 | 0.00 | 0.08 | 0.00 | 91 | 1009.2 |
| 20260509091729 | 9 | 62 | 0.0 | 0.0 | 0.00 | 0.08 | 0.00 | 91 | 1009.4 |
| 20260509091230 | 9 | 92 | 0.0 | 0.0 | 0.00 | 0.08 | 0.00 | 91 | 1009.3 |
| 20260509090728 | 9 | 21 | 0.0 | 0.0 | 0.00 | 0.08 | 0.00 | 91 | 1009.3 |
| 20260509090230 | 9 | 21 | 0.0 | 0.0 | 0.00 | 0.08 | 0.00 | 91 | 1009.3 |
| 20260509085729 | 9 | 21 | 0.0 | 0.0 | 0.00 | 0.08 | 0.00 | 91 | 1009.4 |
| 20260509084230 | 9 | 11 | 0.0 | 0.0 | 0.00 | 0.08 | 0.00 | 91 | 1009.4 |
| 20260509083230 | 9 | 303 | 0.0 | 0.0 | 0.00 | 0.08 | 0.00 | 91 | 1009.2 |
| 20260509082730 | 9 | 303 | 0.0 | 0.0 | 0.00 | 0.08 | 0.00 | 91 | 1009.4 |
| 20260509082230 | 9 | 303 | 0.0 | 0.0 | 0.00 | 0.08 | 0.00 | 91 | 1009.3 |
| 20260509081731 | 9 | 303 | 0.0 | 0.0 | 0.00 | 0.08 | 0.00 | 91 | 1009.3 |
| 20260509081230 | 9 | 303 | 0.0 | 0.0 | 0.00 | 0.08 | 0.00 | 91 | 1009.3 |
| 20260509080730 | 9 | 295 | 0.0 | 0.0 | 0.00 | 0.08 | 0.00 | 91 | 1009.2 |
| 20260509080230 | 9 | 295 | 0.0 | 0.0 | 0.00 | 0.08 | 0.00 | 91 | 1009.2 |
| 20260509075730 | 9 | 295 | 0.0 | 0.0 | 0.00 | 0.08 | 0.00 | 91 | 1009.3 |
| 20260509075230 | 9 | 295 | 0.0 | 0.0 | 0.00 | 0.08 | 0.00 | 91 | 1009.4 |
| 20260509074730 | 9 | 295 | 0.0 | 0.0 | 0.00 | 0.08 | 0.00 | 91 | 1009.3 |
| 20260509074230 | 9 | 295 | 0.0 | 0.0 | 0.00 | 0.08 | 0.00 | 91 | 1009.2 |
| 20260509073730 | 9 | 295 | 0.0 | 0.0 | 0.00 | 0.08 | 0.00 | 91 | 1009.1 |
| 20260509072730 | 9 | 295 | 0.0 | 0.0 | 0.00 | 0.08 | 0.00 | 91 | 1008.8 |
| 20260509072230 | 9 | 295 | 0.0 | 0.0 | 0.00 | 0.08 | 0.00 | 91 | 1008.7 |
| 20260509071730 | 9 | 295 | 0.0 | 0.0 | 0.00 | 0.08 | 0.00 | 91 | 1008.8 |
| 20260509071231 | 9 | 295 | 0.0 | 0.0 | 0.00 | 0.08 | 0.00 | 91 | 1008.8 |
| 20260509070730 | 9 | 295 | 0.0 | 0.0 | 0.00 | 0.08 | 0.00 | 91 | 1008.8 |
| 20260509070231 | 9 | 295 | 0.0 | 0.0 | 0.00 | 0.08 | 0.00 | 91 | 1008.9 |
| 20260509065230 | 9 | 295 | 0.0 | 0.0 | 0.00 | 0.08 | 0.00 | 92 | 1008.9 |
| 20260509064730 | 9 | 295 | 0.0 | 0.0 | 0.00 | 0.08 | 0.00 | 92 | 1009.0 |
| 20260509064230 | 9 | 295 | 0.0 | 0.0 | 0.00 | 0.08 | 0.00 | 92 | 1009.0 |
| 20260509063731 | 9 | 295 | 0.0 | 0.0 | 0.00 | 0.08 | 0.00 | 92 | 1009.3 |
| 20260509063230 | 9 | 295 | 0.0 | 0.0 | 0.00 | 0.08 | 0.00 | 92 | 1009.3 |
| 20260509062730 | 9 | 295 | 0.0 | 0.0 | 0.00 | 0.08 | 0.00 | 92 | 1009.4 |
| 20260509062230 | 9 | 295 | 0.0 | 0.0 | 0.00 | 0.08 | 0.00 | 92 | 1009.5 |
| 20260509061729 | 9 | 295 | 0.0 | 0.0 | 0.00 | 0.08 | 0.00 | 92 | 1009.6 |
| 20260509061229 | 9 | 295 | 0.0 | 0.0 | 0.00 | 0.08 | 0.00 | 92 | 1009.7 |
| 20260509060732 | 9 | 295 | 0.0 | 0.0 | 0.00 | 0.08 | 0.00 | 92 | 1009.8 |
| 20260509060230 | 9 | 295 | 0.0 | 0.0 | 0.00 | 0.08 | 0.00 | 92 | 1009.8 |
| 20260509055731 | 9 | 295 | 0.0 | 0.0 | 0.00 | 0.08 | 0.00 | 92 | 1009.8 |
| 20260509054730 | 9 | 295 | 0.0 | 0.0 | 0.00 | 0.08 | 0.00 | 92 | 1010.0 |
| 20260509054230 | 9 | 295 | 0.0 | 0.0 | 0.00 | 0.08 | 0.00 | 92 | 1010.0 |
| 20260509053730 | 9 | 295 | 0.0 | 0.0 | 0.00 | 0.08 | 0.00 | 92 | 1010.1 |
| 20260509053230 | 9 | 295 | 0.0 | 0.0 | 0.00 | 0.08 | 0.00 | 92 | 1010.2 |
| 20260509052729 | 9 | 295 | 0.0 | 0.0 | 0.00 | 0.08 | 0.00 | 92 | 1010.2 |
| 20260509052230 | 9 | 295 | 0.0 | 0.0 | 0.00 | 0.08 | 0.00 | 92 | 1010.2 |
| 20260509051730 | 9 | 295 | 0.0 | 0.0 | 0.00 | 0.08 | 0.00 | 92 | 1010.2 |
| 20260509051230 | 9 | 295 | 0.0 | 0.0 | 0.00 | 0.08 | 0.00 | 92 | 1010.1 |
| 20260509050730 | 9 | 295 | 0.0 | 0.0 | 0.00 | 0.08 | 0.00 | 92 | 1010.1 |
| 20260509045730 | 9 | 295 | 0.0 | 0.0 | 0.00 | 0.08 | 0.00 | 92 | 1010.2 |
| 20260509045232 | 9 | 295 | 0.0 | 0.0 | 0.00 | 0.08 | 0.00 | 92 | 1010.2 |
| 20260509044730 | 9 | 295 | 0.0 | 0.0 | 0.00 | 0.08 | 0.00 | 92 | 1010.3 |
| 20260509044231 | 9 | 295 | 0.0 | 0.0 | 0.00 | 0.08 | 0.00 | 92 | 1010.3 |
| 20260509043230 | 9 | 295 | 0.0 | 0.0 | 0.03 | 0.08 | 0.00 | 92 | 1010.3 |
| 20260509042730 | 9 | 295 | 0.0 | 0.0 | 0.03 | 0.08 | 0.00 | 92 | 1010.4 |
| 20260509042230 | 9 | 295 | 0.0 | 0.0 | 0.03 | 0.08 | 0.00 | 92 | 1010.4 |
| 20260509041730 | 9 | 295 | 0.0 | 0.0 | 0.03 | 0.08 | 0.00 | 92 | 1010.6 |
| 20260509041229 | 9 | 295 | 0.0 | 0.0 | 0.03 | 0.08 | 0.00 | 92 | 1010.7 |
| 20260509040730 | 9 | 295 | 0.0 | 0.0 | 0.03 | 0.08 | 0.00 | 92 | 1010.8 |
| 20260509040230 | 10 | 295 | 0.0 | 0.0 | 0.03 | 0.08 | 0.00 | 92 | 1010.8 |
| 20260509035731 | 10 | 295 | 0.0 | 0.0 | 0.03 | 0.05 | 0.08 | 92 | 1010.8 |
| 20260509034731 | 10 | 295 | 0.0 | 0.0 | 0.03 | 0.05 | 0.08 | 92 | 1011.1 |
| 20260509033229 | 10 | 295 | 0.0 | 0.0 | 0.03 | 0.05 | 0.05 | 92 | 1011.5 |
| 20260509032230 | 10 | 295 | 0.0 | 0.0 | 0.03 | 0.05 | 0.05 | 92 | 1011.6 |
| 20260509031730 | 10 | 295 | 0.0 | 0.0 | 0.03 | 0.05 | 0.05 | 91 | 1011.6 |
| 20260509031231 | 10 | 295 | 0.0 | 0.0 | 0.03 | 0.05 | 0.05 | 91 | 1011.7 |
| 20260509030730 | 10 | 295 | 0.0 | 0.0 | 0.03 | 0.05 | 0.05 | 91 | 1011.7 |
| 20260509030230 | 10 | 295 | 0.0 | 0.0 | 0.03 | 0.05 | 0.05 | 91 | 1011.8 |
| 20260509025230 | 10 | 295 | 0.0 | 0.0 | 0.03 | 0.03 | 0.05 | 91 | 1012.0 |
| 20260509024729 | 10 | 295 | 0.0 | 0.0 | 0.03 | 0.03 | 0.05 | 91 | 1012.0 |
| 20260509024231 | 10 | 295 | 0.0 | 0.0 | 0.03 | 0.03 | 0.05 | 91 | 1012.0 |
| 20260509023729 | 10 | 295 | 0.0 | 0.0 | 0.00 | 0.03 | 0.03 | 91 | 1012.0 |
| 20260509023231 | 10 | 295 | 0.0 | 0.0 | 0.00 | 0.03 | 0.03 | 91 | 1012.1 |
| 20260509022730 | 10 | 295 | 0.0 | 0.0 | 0.03 | 0.03 | 0.03 | 91 | 1012.1 |
| 20260509022231 | 10 | 295 | 0.0 | 0.0 | 0.03 | 0.03 | 0.03 | 91 | 1011.9 |
| 20260509021730 | 10 | 295 | 0.0 | 0.0 | 0.03 | 0.03 | 0.03 | 91 | 1011.9 |
| 20260509021229 | 10 | 295 | 0.0 | 0.0 | 0.03 | 0.03 | 0.03 | 91 | 1011.8 |
| 20260509020730 | 10 | 295 | 0.0 | 0.0 | 0.03 | 0.03 | 0.03 | 90 | 1011.7 |
| 20260509020229 | 10 | 62 | 0.0 | 0.0 | 0.03 | 0.03 | 0.03 | 90 | 1011.6 |
| 20260509015730 | 10 | 63 | 0.0 | 0.0 | 0.03 | 0.00 | 0.03 | 90 | 1011.5 |
| 20260509014730 | 11 | 63 | 0.0 | 0.0 | 0.03 | 0.00 | 0.03 | 89 | 1011.3 |
| 20260509014229 | 11 | 63 | 0.0 | 0.0 | 0.03 | 0.00 | 0.03 | 88 | 1011.3 |
| 20260509013730 | 11 | 63 | 0.0 | 0.0 | 0.03 | 0.00 | 0.03 | 88 | 1011.1 |
| 20260509013229 | 11 | 63 | 0.0 | 0.0 | 0.03 | 0.00 | 0.03 | 88 | 1011.1 |
| 20260509012730 | 11 | 63 | 0.0 | 0.0 | 0.00 | 0.00 | 0.00 | 87 | 1011.0 |
| 20260509012229 | 11 | 63 | 0.0 | 0.0 | 0.00 | 0.00 | 0.00 | 87 | 1010.9 |
| 20260509011730 | 11 | 63 | 0.0 | 0.0 | 0.00 | 0.00 | 0.00 | 86 | 1010.8 |
| 20260509011230 | 11 | 63 | 0.0 | 0.0 | 0.00 | 0.00 | 0.00 | 86 | 1010.8 |
| 20260509010730 | 11 | 63 | 0.0 | 0.0 | 0.00 | 0.00 | 0.00 | 84 | 1010.5 |
| 20260509010229 | 11 | 63 | 0.0 | 0.0 | 0.00 | 0.00 | 0.00 | 84 | 1010.7 |
| 20260509005729 | 11 | 63 | 0.0 | 0.0 | 0.00 | 0.00 | 0.00 | 84 | 1010.4 |
| 20260509005230 | 11 | 63 | 0.0 | 0.0 | 0.00 | 0.00 | 0.00 | 85 | 1010.5 |
| 20260509004230 | 11 | 63 | 0.0 | 0.0 | 0.00 | 0.00 | 0.00 | 84 | 1010.3 |
| 20260509003729 | 11 | 63 | 0.0 | 0.0 | 0.00 | 0.00 | 0.00 | 83 | 1010.1 |
| 20260509003230 | 11 | 63 | 0.0 | 0.0 | 0.00 | 0.00 | 0.00 | 83 | 1010.3 |
| 20260509002730 | 11 | 63 | 0.0 | 0.0 | 0.00 | 0.00 | 0.00 | 82 | 1010.3 |
| 20260509002231 | 12 | 63 | 0.0 | 0.0 | 0.00 | 0.00 | 0.00 | 81 | 1010.3 |
| 20260509001231 | 12 | 63 | 0.0 | 0.0 | 0.00 | 0.00 | 0.00 | 80 | 1010.2 |
| 20260508235729 | 12 | 63 | 0.0 | 0.0 | 0.00 | 0.00 | 0.00 | 82 | 1010.3 |
| 20260508235229 | 12 | 63 | 0.0 | 0.0 | 0.00 | 0.00 | 0.00 | 82 | 1010.4 |
| 20260508234730 | 12 | 63 | 0.0 | 0.0 | 0.00 | 0.00 | 0.00 | 82 | 1010.4 |
| 20260508234227 | 12 | 62 | 0.0 | 0.0 | 0.00 | 0.00 | 0.00 | 84 | 1010.4 |
| 20260508233728 | 12 | 244 | 0.0 | 0.0 | 0.00 | 0.00 | 0.00 | 83 | 1010.5 |
| 20260508233228 | 12 | 244 | 0.0 | 0.0 | 0.00 | 0.00 | 0.00 | 82 | 1010.4 |
| 20260508232228 | 12 | 244 | 0.0 | 0.0 | 0.00 | 0.00 | 0.00 | 83 | 1010.6 |
| 20260508231729 | 12 | 244 | 0.0 | 0.0 | 0.00 | 0.00 | 0.00 | 83 | 1010.6 |
| 20260508231228 | 12 | 244 | 0.0 | 0.0 | 0.00 | 0.00 | 0.00 | 82 | 1010.5 |
| 20260508230728 | 12 | 244 | 0.0 | 0.0 | 0.00 | 0.00 | 0.00 | 81 | 1010.5 |
| 20260508230228 | 12 | 244 | 0.0 | 0.0 | 0.00 | 0.00 | 0.00 | 81 | 1010.5 |
| 20260508225728 | 12 | 244 | 0.0 | 0.0 | 0.00 | 0.00 | 0.00 | 80 | 1010.6 |
| 20260508225227 | 12 | 244 | 0.0 | 0.0 | 0.00 | 0.00 | 0.00 | 80 | 1010.5 |
| 20260508224728 | 12 | 244 | 0.0 | 0.0 | 0.00 | 0.00 | 0.00 | 79 | 1010.5 |